Back to catalog

OBJECT A

AliveSSO
NORAD 100237·UNKNOWN·🇨🇳 China

Launched Aug 5, 2026 from Yellow Sea Launch Area

Loading…

Next Passes (next 24 hours)

TLE

FreshSource: Space-Track

Epoch: Sep 14, 2026, 14:37 UTC

1 A0237U 26178A   26257.60950605  .00000055  00000-0  37567-4 0  9991
2 A0237  98.5469 331.2556 0025329 175.8624 184.2773 14.30605192  5798

Track OBJECT A in real time with AllMySat

Download on the App Store